Tracking 19794 objects as of 23-Jul-2019
HD Live streaming from Space Station
objects crossing your sky now

FENGYUN 1C DEB

Track FENGYUN 1C DEB now!
10-day predictions


NORAD ID: 33689
Int'l Code: 1999-025DGA
Perigee: 755.9 km
Apogee: 840.4 km
Inclination: 99.5 °
Period: 100.7 minutes
Semi major axis: 7169 km
RCS: 0.0143 m2 (small)
Launch date: May 10, 1999
Source: People's Republic of China (PRC)
Launch site: Taiyaun Space Center, China (TSC)

Note: This is SATELLITE DEBRIS
aabbcc
Your satellite tracking list
Your tracking list is empty




NASA's NSSDC Master Catalog

Two Line Element Set (TLE):
1 33689U 99025DGA 19202.48462101  .00000160  00000-0  80254-4 0  9994
2 33689  99.5244 295.2701 0058989  25.5144  36.0267 14.30214705588811
Source of the keplerian elements: AFSPC